Regional Weather Roundup
Issued by NWS

Home | Current Version | Previous Version | Text Only | Print | Product List | Glossary On
Versions: 1 2 3 4 5 6 7 8 9 10 11 12 13 14 15 16 17 18 19 20 21 22 23 24 25 26 27 28 29 30 31 32 33 34 35 36 37 38 39 40 41 42 43 44 45 46 47 48 49 50
000
ASUS43 KIND 051009
RWRIN

WEATHER ROUNDUP FOR INDIANA
NATIONAL WEATHER SERVICE INDIANAPOLIS IN
600 AM EDT THU MAY 05 2016

NOTE: "FAIR" INDICATES FEW OR NO CLOUDS BELOW 12,000 FEET WITH NO
SIGNIFICANT WEATHER AND/OR OBSTRUCTIONS TO VISIBILITY.

* - STATION DOES NOT REPORT WEATHER SUCH AS PRECIPITATION OR FOG.

+ - STATION NOT QUALITY CONTROLLED BY THE NATIONAL WEATHER SERVICE.
    USE DATA WITH CAUTION...ESPECIALLY DEWPOINT AND RELATIVE
    HUMIDITY OBSERVATIONS.

INZ001>003-010>013-019-020-051100-
NORTHWEST INDIANA

CITY           SKY/WX    TMP DP  RH WIND       PRES   REMARKS
GARY /AIRPORT/ CLOUDY    43  43 100 N17G29    29.90R
KNOX *+        CLOUDY    43  39  87 N13       29.82R
LA PORTE +     CLOUDY    44  44 100 N13G20    29.83S
MICHIGAN CITY+ CLOUDY    41  41 100 N12       29.86R
MONTICELLO +   CLOUDY    42  39  88 N14       29.80S
RENSSELAER +   CLOUDY    43  39  87 N10G17    29.84R
VALPARAISO     CLOUDY    42  39  89 N10       29.85R

$$

LMZ046-743>745-051100-
SOUTHERN LAKE MICHIGAN

STATION/POSITION TIME  TEMP    WIND        PRES    WAVE
                       AIR SEA DIR/SP/G            HT
                 (UTC) (F)     (DEG/KT/KT) (MB)    (FT)
BURNS HARBOR     0913   43      20/ 20     1011.5R
MICHIGAN CITY    0910   42     360/ 24/ 26   N/A

$$

INZ004-005-014>016-021>024-051100-
NORTH CENTRAL INDIANA

CITY           SKY/WX    TMP DP  RH WIND       PRES   REMARKS
GOSHEN         CLOUDY    46  44  93 N14       29.80R
LOGANSPORT +   MOCLDY    41  39  93 N3        29.81R
PERU/GRISSOM   PTCLDY    41  40  99 NE8       29.78R
ROCHESTER +    MOCLDY    45  45 100 N6        29.81R
SOUTH BEND     CLOUDY    44  42  93 N13       29.82S
WARSAW +       CLOUDY    43  41  93 CALM      29.80R

$$

INZ006>009-017-018-025>027-051100-
NORTHEAST INDIANA

CITY           SKY/WX    TMP DP  RH WIND       PRES   REMARKS
ANGOLA *+      CLOUDY    45  45 100 N14       29.77S
AUBURN +       CLOUDY    43  41  93 NW3       29.78S
FORT WAYNE     CLOUDY    41  38  89 NW7       29.78R
HUNTINGTON +   CLOUDY    39  38  95 CALM      29.78S

$$

INZ028-029-035-036-043>045-051>053-051100-
WEST CENTRAL INDIANA

CITY           SKY/WX    TMP DP  RH WIND       PRES   REMARKS
CRAWFORDSVL +  CLOUDY    40  40 100 N10G20    29.79S
GREENCASTLE +  CLOUDY    41  41 100 N14G20    29.79S FOG
LAFAYETTE      CLOUDY    42  39  89 N12       29.81R
TERRE HAUTE    CLOUDY    44  36  73 N13G22    29.80S

$$

INZ030>032-037>040-046>048-054>057-064-065-051100-
CENTRAL INDIANA

CITY           SKY/WX    TMP DP  RH WIND       PRES   REMARKS
CP ATTERBURY + CLOUDY    41  39  93 NW8       29.76S
FISHERS *+     CLOUDY    39  39 100 N9        29.77
FRANKFORT +      N/A     42  41  97 N12       29.80R
GREENWOOD *+   CLOUDY    41  41 100 N10       29.76
INDIANAPOLIS   LGT RAIN  42  40  92 N12       29.75R FOG
-EAGLE CREEK   CLOUDY    43  41  93 N8        29.76R
KOKOMO *+      CLOUDY    41  36  81 NE12      29.79R
MARION +       CLOUDY    40  38  93 NE8       29.79R
SHELBYVILLE    CLOUDY    44  40  85 N12       29.74S FOG
ZIONSVILLE +   CLOUDY    41  40  95 N10       29.77R

$$

INZ033-034-041-042-049-050-058-059-051100-
EAST CENTRAL INDIANA

CITY           SKY/WX    TMP DP  RH WIND       PRES   REMARKS
MUNCIE         CLOUDY    42  38  85 NE8       29.76S

$$

INZ060-061-067>069-081>083-085>088-051100-
SOUTHWEST INDIANA

CITY           SKY/WX    TMP DP  RH WIND       PRES   REMARKS
EVANSVILLE     CLEAR     48  42  80 NW7       29.80S
HUNTINGBURG *+ CLOUDY    46  37  71 NW13G18   29.77F
WASHINGTON +   CLOUDY    46  39  78 NW13G20   29.79R

$$

INZ062-063-066-070>080-084-089>092-051100-
SOUTH CENTRAL AND SOUTHEAST INDIANA

CITY           SKY/WX    TMP DP  RH WIND       PRES   REMARKS
BEDFORD +      CLOUDY    43  43 100 N7G21     29.76R
BLOOMINGTON    LGT RAIN  42  38  85 VRB5      29.77R
MADISON *+     CLOUDY    41  39  93 NW3       29.76R
NORTH VERNON + DRIZZLE  N/A N/A N/A CALM      29.75S
SEYMOUR +      CLOUDY    45  41  87 CALM      29.76R

$$




USA.gov is the U.S. government's official web portal to all federal, state and local government web resources and services.